Location: Newark
(48.9886°N, 1.2358°E)
Time: 11:12:56
(UTC+00:00)

Transit 4A - Pass Details

Date: 27 November 2019
Orbit: 870 x 974 km, 66.8° (Epoch: 14 December)

Event Time Altitude Azimuth Distance (km) Brightness Sun altitude
Exits shadow 06:34:42 - 288° (WNW) 2,623 9.6 -7.7°
Reaches altitude 10° 06:35:13 10° 283° (WNW) 2,536 9.5 -7.6°
Maximum altitude 06:37:36 13° 259° (WSW) 2,337 9.5 -7.2°
Drops below altitude 10° 06:39:59 10° 234° (SW) 2,517 9.9 -6.9°
Sets 06:43:59 0° 207° (SSW) 3,445 10.9 -6.3°
